Regional Weather Roundup
Issued by NWS

Home | Current Version | Previous Version | Text Only | Print | Product List | Glossary Off
Versions: 1 2 3 4 5 6 7 8 9 10 11 12 13 14 15 16 17 18 19 20 21 22 23 24 25 26 27 28 29 30 31 32 33 34 35 36 37 38 39 40 41 42 43 44 45 46 47 48 49 50

000
ASUS45 KSLC 200910
RWRUT

UTAH REGIONAL WEATHER ROUNDUP
NATIONAL WEATHER SERVICE SALT LAKE CITY UT
200 AM MST SAT DEC 20 2014

UTZ001>011-023>025-201000-

NORTHERN UTAH

CITY           SKY/WX    TMP DP  RH WIND       PRES   REMARKS
BRIGHAM CITY   CLOUDY    37  34  87 CALM      30.14F
HILL AFB       MOCLDY    35  35  99 NE2       30.12S
LOGAN          CLOUDY    35  33  92 N5        30.12S FOG     WCI  31
OGDEN          LGT RAIN  37  35  92 CALM      30.13S
PROVO AIRPORT  CLOUDY    37  30  75 CALM      30.16S
SALT LAKE CITY LGT RAIN  39  35  86 CALM      30.13S
VERNAL         CLOUDY    27  23  85 CALM      30.19S
WENDOVER       CLOUDY    32  27  80 CALM      30.13S
HEBER CITY     FLURRIES  32  28  86 E3        30.12S
WEST JORDAN    CLOUDY    37  32  81 S7        30.13S WCI  32

$$

UTZ012>022-026-027-201000-

SOUTHERN/CENTRAL UTAH

CITY           SKY/WX    TMP DP  RH WIND       PRES   REMARKS
BLANDING       CLOUDY    28  26  95 N3        30.26R
BRYCE CANYON   MOCLDY    21  18  88 W5        30.15F WCI  15
CEDAR CITY     CLEAR     30  23  75 S5        30.14F WCI  25
DELTA          CLOUDY    37  29  72 S12       30.13F WCI  30
MILFORD        CLEAR     34  26  72 S10       30.12F WCI  26
MOAB/CYNLANDS  CLOUDY    31  29  92 CALM      30.20F
PRICE          MOCLDY    25  20  81 NE5       30.17F WCI  19
ST GEORGE      CLOUDY    39  32  75 SW6       30.19F WCI  35
KANAB          MOCLDY    32  30  93 NW6       30.21F WCI  26

$$

REGIONAL REPORTS     COLORADO/ARIZONA

CITY           SKY/WX    TMP DP  RH WIND       PRES   REMARKS
CRAIG, CO      NOT AVBL
GRAND JUNCTION MOCLDY    28  25  88 E8        30.21S WCI  20
RIFLE          CLOUDY    26  21  81 SW3       30.22R
MONTROSE       PTCLDY    25  17  72 SE9       30.24S WCI  15
CORTEZ         CLEAR     23  19  85 NE8       30.19F WCI  14
PAGE, AZ       CLOUDY    38  30  73 CALM      30.20S
GRAND CANYON   CLOUDY    28  25  88 CALM      30.18F
KINGMAN        PTCLDY    36  30  79 VRB6      30.17F WCI  31
FLAGSTAFF      MOCLDY    25  22  88 CALM      30.17S

$$

REGIONAL REPORTS    NEVADA/IDAHO/WYOMING

CITY           SKY/WX    TMP DP  RH WIND       PRES   REMARKS
LAS VEGAS, NV  MOCLDY    45  37  73 SW8       30.14S
ELY            PTCLDY    24  22  91 SE5       30.15F WCI  18
ELKO           PTCLDY    30  29  96 CALM      30.10F
POCATELLO, ID  CLOUDY    37  35  92 S7        30.09F WCI  32
BURLEY         CLOUDY    34  32  92 S3        30.08F
EVANSTON, WY   CLOUDY    29  24  82 SW10      30.08S WCI  20
ROCK SPRINGS   CLOUDY    27  20  75 SW9       30.08F WCI  18
KEMMERER       FLURRIES  28  27  93 SW6       30.07F WCI  22

$$


USA.gov is the U.S. government's official web portal to all federal, state and local government web resources and services.